Location: Newark
(49.2191°N, 12.6671°E)
Time: 04:22:52
(UTC+00:00)

Transit 4A - Pass Details

Date: 30 January 2020
Orbit: 872 x 973 km, 66.8° (Epoch: 16 February)

Event Time Altitude Azimuth Distance (km) Brightness Sun altitude
Rises 10:30:20 0° 320° (NW) 3,483 10.4 22.0°
Reaches altitude 10° 10:33:37 10° 338° (NNW) 2,535 9.7 22.2°
Maximum altitude 10:37:42 19° 23° (NNE) 1,963 9.3 22.3°
Drops below altitude 10° 10:41:47 10° 68° (ENE) 2,529 10.1 22.4°
Sets 10:45:03 0° 86° (E) 3,472 11.0 22.5°
